Time,TemperatureF,DewpointF,PressureIn,WindDirection,WindDirectionDegrees,WindSpeedMPH,WindSpeedGustMPH,Humidity,HourlyPrecipIn,Conditions,Clouds,dailyrainin,SoftwareType,DateUTC
2013-07-12 00:00:00,71.2,52.7,31.90,West,274,0.0,0.0,52,0.00,,---,0.00,VWS V14.01,2013-07-12 07:00:00,
2013-07-12 00:05:00,71.2,52.7,31.90,West,274,0.0,0.0,52,0.00,,---,0.00,VWS V14.01,2013-07-12 07:05:00,
2013-07-12 00:10:00,71.2,52.2,32.96,West,274,0.0,0.0,51,0.00,,---,0.00,VWS V14.01,2013-07-12 07:10:00,
2013-07-12 00:15:00,71.2,52.2,32.96,West,274,0.0,0.0,51,0.00,,---,0.00,VWS V14.01,2013-07-12 07:15:00,
2013-07-12 00:20:00,71.6,52.5,32.96,West,274,0.0,0.0,51,0.00,,---,0.00,VWS V14.01,2013-07-12 07:20:00,
2013-07-12 00:25:00,71.6,52.0,33.25,West,274,0.0,0.0,50,0.00,,---,0.00,VWS V14.01,2013-07-12 07:25:00,
2013-07-12 00:30:00,71.6,52.0,33.25,West,274,0.0,0.0,50,0.00,,---,0.00,VWS V14.01,2013-07-12 07:30:00,
2013-07-12 00:35:00,71.4,51.8,31.57,SW,220,0.0,0.0,50,0.00,,---,0.00,VWS V14.01,2013-07-12 07:35:00,
2013-07-12 00:40:00,71.4,51.8,31.57,SW,220,0.0,0.0,50,0.00,,---,0.00,VWS V14.01,2013-07-12 07:40:00,
2013-07-12 00:45:00,71.1,52.0,31.57,SW,220,0.0,0.0,51,0.00,,---,0.00,VWS V14.01,2013-07-12 07:45:00,
2013-07-12 00:51:00,71.1,52.0,31.84,SW,220,0.0,0.0,51,0.00,,---,0.00,VWS V14.01,2013-07-12 07:51:00,
2013-07-12 00:56:00,71.1,52.0,31.84,SW,220,0.0,0.0,51,0.00,,---,0.00,VWS V14.01,2013-07-12 07:56:00,
2013-07-12 01:01:00,71.1,52.0,31.84,SW,220,0.0,0.0,51,0.00,,---,0.00,VWS V14.01,2013-07-12 08:01:00,
2013-07-12 01:06:00,70.2,52.2,31.84,SW,220,0.0,0.0,53,0.00,,---,0.00,VWS V14.01,2013-07-12 08:06:00,
2013-07-12 01:11:00,70.0,53.1,31.42,SW,220,0.0,0.0,55,0.00,,---,0.00,VWS V14.01,2013-07-12 08:11:00,
2013-07-12 01:16:00,70.0,53.1,31.42,SW,220,0.0,0.0,55,0.00,,---,0.00,VWS V14.01,2013-07-12 08:16:00,
2013-07-12 01:21:00,70.2,54.2,31.42,SW,220,0.0,0.0,57,0.00,,---,0.00,VWS V14.01,2013-07-12 08:21:00,
2013-07-12 01:26:00,70.2,54.2,31.57,SW,220,0.0,0.0,57,0.00,,---,0.00,VWS V14.01,2013-07-12 08:26:00,
2013-07-12 01:31:00,70.2,54.2,31.57,SW,220,0.0,0.0,57,0.00,,---,0.00,VWS V14.01,2013-07-12 08:31:00,
2013-07-12 01:36:00,70.3,54.4,31.57,SW,220,0.0,0.0,57,0.00,,---,0.00,VWS V14.01,2013-07-12 08:36:00,
2013-07-12 01:41:00,70.5,54.1,31.95,SW,220,0.0,0.0,56,0.00,,---,0.00,VWS V14.01,2013-07-12 08:41:00,
2013-07-12 01:46:00,70.5,53.6,31.95,SW,220,0.0,0.0,55,0.00,,---,0.00,VWS V14.01,2013-07-12 08:46:00,
2013-07-12 01:51:00,70.3,53.9,34.14,SW,220,0.0,0.0,56,0.00,,---,0.00,VWS V14.01,2013-07-12 08:51:00,
2013-07-12 01:56:00,70.2,53.8,34.14,SW,220,0.0,0.0,56,0.00,,---,0.00,VWS V14.01,2013-07-12 08:56:00,
2013-07-12 02:01:00,70.0,53.6,34.14,SW,220,0.0,0.0,56,0.00,,---,0.00,VWS V14.01,2013-07-12 09:01:00,
2013-07-12 02:06:00,70.0,53.6,32.60,SW,220,0.0,0.0,56,0.00,,---,0.00,VWS V14.01,2013-07-12 09:06:00,
2013-07-12 02:11:00,69.8,52.9,32.60,SW,220,0.0,0.0,55,0.00,,---,0.00,VWS V14.01,2013-07-12 09:11:00,
2013-07-12 02:17:00,69.8,52.4,32.60,SW,220,0.0,0.0,54,0.00,,---,0.00,VWS V14.01,2013-07-12 09:17:00,
2013-07-12 02:22:00,69.6,51.8,33.08,SW,220,0.0,0.0,53,0.00,,---,0.00,VWS V14.01,2013-07-12 09:22:00,
2013-07-12 02:27:00,69.6,51.8,33.08,SW,220,0.0,0.0,53,0.00,,---,0.00,VWS V14.01,2013-07-12 09:27:00,
2013-07-12 02:32:00,69.4,51.1,33.08,SW,220,0.0,0.0,52,0.00,,---,0.00,VWS V14.01,2013-07-12 09:32:00,
2013-07-12 02:37:00,69.6,51.2,34.35,SW,220,0.0,0.0,52,0.00,,---,0.00,VWS V14.01,2013-07-12 09:37:00,
2013-07-12 02:42:00,69.6,51.2,34.35,SW,220,0.0,0.0,52,0.00,,---,0.00,VWS V14.01,2013-07-12 09:42:00,
2013-07-12 02:47:00,69.3,50.9,34.35,SW,218,0.0,0.0,52,0.00,,---,0.00,VWS V14.01,2013-07-12 09:47:00,
2013-07-12 02:52:00,69.3,50.9,34.35,SW,218,0.0,0.0,52,0.00,,---,0.00,VWS V14.01,2013-07-12 09:52:00,
2013-07-12 02:57:00,69.1,51.2,31.36,SW,218,0.0,0.0,53,0.00,,---,0.00,VWS V14.01,2013-07-12 09:57:00,
2013-07-12 03:02:00,69.3,51.4,31.36,SW,218,0.0,0.0,53,0.00,,---,0.00,VWS V14.01,2013-07-12 10:02:00,
2013-07-12 03:07:00,69.3,51.4,31.36,SW,219,0.0,0.0,53,0.00,,---,0.00,VWS V14.01,2013-07-12 10:07:00,
2013-07-12 03:12:00,69.6,51.2,31.69,SW,219,0.0,0.0,52,0.00,,---,0.00,VWS V14.01,2013-07-12 10:12:00,
2013-07-12 03:17:00,69.6,51.2,31.69,SW,219,0.0,0.0,52,0.00,,---,0.00,VWS V14.01,2013-07-12 10:17:00,
2013-07-12 03:22:00,69.6,51.2,31.45,SW,219,0.0,0.0,52,0.00,,---,0.00,VWS V14.01,2013-07-12 10:22:00,
2013-07-12 03:27:00,69.4,51.1,31.45,SW,219,0.0,0.0,52,0.00,,---,0.00,VWS V14.01,2013-07-12 10:27:00,
2013-07-12 03:32:00,69.3,50.9,31.45,SW,219,0.0,0.0,52,0.00,,---,0.00,VWS V14.01,2013-07-12 10:32:00,
2013-07-12 03:37:00,69.1,50.7,31.51,SW,219,0.0,0.0,52,0.00,,---,0.00,VWS V14.01,2013-07-12 10:37:00,
2013-07-12 03:42:00,68.9,51.1,31.51,SW,219,0.0,0.0,53,0.00,,---,0.00,VWS V14.01,2013-07-12 10:42:00,
2013-07-12 03:47:00,68.5,52.2,31.51,SW,219,0.0,0.0,56,0.00,,---,0.00,VWS V14.01,2013-07-12 10:47:00,
2013-07-12 03:52:00,68.5,53.2,33.02,SW,219,0.0,0.0,58,0.00,,---,0.00,VWS V14.01,2013-07-12 10:52:00,
2013-07-12 03:57:00,68.5,53.7,33.02,SW,219,0.0,0.0,59,0.00,,---,0.00,VWS V14.01,2013-07-12 10:57:00,
2013-07-12 04:02:00,68.4,54.8,33.02,SW,219,0.0,0.0,62,0.00,,---,0.00,VWS V14.01,2013-07-12 11:02:00,
2013-07-12 04:08:00,68.4,54.4,31.63,SW,219,0.0,0.0,61,0.00,,---,0.00,VWS V14.01,2013-07-12 11:08:00,
2013-07-12 04:13:00,68.4,54.8,31.63,SW,219,0.0,0.0,62,0.00,,---,0.00,VWS V14.01,2013-07-12 11:13:00,
2013-07-12 04:18:00,68.4,54.8,31.63,SW,219,0.0,0.0,62,0.00,,---,0.00,VWS V14.01,2013-07-12 11:18:00,
2013-07-12 04:23:00,68.4,54.4,31.66,SW,219,0.0,0.0,61,0.00,,---,0.00,VWS V14.01,2013-07-12 11:23:00,
2013-07-12 04:28:00,68.4,54.4,31.66,SW,219,0.0,0.0,61,0.00,,---,0.00,VWS V14.01,2013-07-12 11:28:00,
2013-07-12 04:33:00,68.0,54.1,31.66,SW,219,0.0,0.0,61,0.00,,---,0.00,VWS V14.01,2013-07-12 11:33:00,
2013-07-12 04:38:00,67.5,53.6,31.16,SW,219,0.0,0.0,61,0.00,,---,0.00,VWS V14.01,2013-07-12 11:38:00,
2013-07-12 04:43:00,67.3,53.4,31.16,SW,219,0.0,0.0,61,0.00,,---,0.00,VWS V14.01,2013-07-12 11:43:00,
2013-07-12 04:48:00,67.3,53.4,31.16,SW,219,0.0,0.0,61,0.00,,---,0.00,VWS V14.01,2013-07-12 11:48:00,
2013-07-12 04:53:00,67.3,53.4,31.16,SW,219,0.0,0.0,61,0.00,,---,0.00,VWS V14.01,2013-07-12 11:53:00,
2013-07-12 04:58:00,67.1,54.1,31.19,SW,219,0.0,0.0,63,0.00,,---,0.00,VWS V14.01,2013-07-12 11:58:00,
2013-07-12 05:03:00,66.9,54.4,31.19,SW,219,0.0,0.0,64,0.00,,---,0.00,VWS V14.01,2013-07-12 12:03:00,
2013-07-12 05:08:00,66.9,53.9,31.39,SW,219,0.0,0.0,63,0.00,,---,0.00,VWS V14.01,2013-07-12 12:08:00,
2013-07-12 05:13:00,66.9,54.4,31.39,SW,219,0.0,0.0,64,0.00,,---,0.00,VWS V14.01,2013-07-12 12:13:00,
2013-07-12 05:18:00,66.9,54.4,31.39,SW,219,0.0,0.0,64,0.00,,---,0.00,VWS V14.01,2013-07-12 12:18:00,
2013-07-12 05:23:00,66.9,54.4,31.72,SW,219,0.0,0.0,64,0.00,,---,0.00,VWS V14.01,2013-07-12 12:23:00,
2013-07-12 05:28:00,66.9,54.4,31.72,SW,219,0.0,0.0,64,0.00,,---,0.00,VWS V14.01,2013-07-12 12:28:00,
2013-07-12 05:33:00,67.1,54.5,31.72,SW,219,0.0,0.0,64,0.00,,---,0.00,VWS V14.01,2013-07-12 12:33:00,
2013-07-12 05:38:00,67.3,54.7,31.28,SW,219,0.0,0.0,64,0.00,,---,0.00,VWS V14.01,2013-07-12 12:38:00,
2013-07-12 05:43:00,67.3,54.7,31.28,SW,219,0.0,0.0,64,0.00,,---,0.00,VWS V14.01,2013-07-12 12:43:00,
2013-07-12 05:48:00,67.5,52.7,31.28,SW,219,0.0,0.0,59,0.00,,---,0.00,VWS V14.01,2013-07-12 12:48:00,
2013-07-12 05:53:00,67.6,52.3,31.01,SW,218,0.0,0.0,58,0.00,,---,0.00,VWS V14.01,2013-07-12 12:53:00,
2013-07-12 05:58:00,68.0,53.2,31.01,SW,218,0.0,0.0,59,0.00,,---,0.00,VWS V14.01,2013-07-12 12:58:00,
2013-07-12 06:03:00,68.5,53.7,31.01,SW,218,0.0,0.0,59,0.00,,---,0.00,VWS V14.01,2013-07-12 13:03:00,
2013-07-12 06:08:00,68.9,54.0,31.01,SW,218,0.0,0.0,59,0.00,,---,0.00,VWS V14.01,2013-07-12 13:08:00,
2013-07-12 06:13:00,69.4,54.5,31.01,SW,218,0.0,0.0,59,0.00,,---,0.00,VWS V14.01,2013-07-12 13:13:00,
2013-07-12 06:18:00,69.4,54.5,31.01,SW,218,0.0,0.0,59,0.00,,---,0.00,VWS V14.01,2013-07-12 13:18:00,
2013-07-12 06:23:00,70.3,55.3,31.90,SW,218,0.0,0.0,59,0.00,,---,0.00,VWS V14.01,2013-07-12 13:23:00,
2013-07-12 06:28:00,71.4,56.4,31.90,SW,218,0.0,0.0,59,0.00,,---,0.00,VWS V14.01,2013-07-12 13:28:00,
2013-07-12 06:33:00,71.6,56.1,31.92,SW,218,0.0,0.0,58,0.00,,---,0.00,VWS V14.01,2013-07-12 13:33:00,
2013-07-12 06:39:00,72.0,55.9,31.92,SW,227,0.0,0.0,57,0.00,,---,0.00,VWS V14.01,2013-07-12 13:39:00,
2013-07-12 06:44:00,72.1,56.1,31.92,SW,230,0.0,0.0,57,0.00,,---,0.00,VWS V14.01,2013-07-12 13:44:00,
2013-07-12 06:49:00,72.1,56.1,31.92,West,280,0.0,0.0,57,0.00,,---,0.00,VWS V14.01,2013-07-12 13:49:00,
2013-07-12 06:54:00,72.5,55.9,32.10,WNW,282,0.0,0.0,56,0.00,,---,0.00,VWS V14.01,2013-07-12 13:54:00,
2013-07-12 06:59:00,72.9,55.8,32.10,NW,305,0.0,0.0,55,0.00,,---,0.00,VWS V14.01,2013-07-12 13:59:00,
2013-07-12 07:04:00,73.2,54.6,32.10,NW,315,0.0,0.0,52,0.00,,---,0.00,VWS V14.01,2013-07-12 14:04:00,
2013-07-12 07:09:00,73.2,54.6,31.90,WNW,302,0.0,0.0,52,0.00,,---,0.00,VWS V14.01,2013-07-12 14:09:00,
2013-07-12 07:14:00,73.6,54.4,31.90,West,277,0.0,0.0,51,0.00,,---,0.00,VWS V14.01,2013-07-12 14:14:00,
2013-07-12 07:19:00,73.8,54.0,31.63,NW,307,0.0,0.0,50,0.00,,---,0.00,VWS V14.01,2013-07-12 14:19:00,
2013-07-12 07:24:00,74.1,53.8,31.63,NW,309,0.0,0.0,49,0.00,,---,0.00,VWS V14.01,2013-07-12 14:24:00,
2013-07-12 07:29:00,74.1,53.8,31.63,NW,310,0.0,0.0,49,0.00,,---,0.00,VWS V14.01,2013-07-12 14:29:00,
2013-07-12 07:34:00,74.7,53.7,31.63,WNW,300,0.0,0.0,48,0.00,,---,0.00,VWS V14.01,2013-07-12 14:34:00,
2013-07-12 07:39:00,74.7,53.7,31.25,WNW,297,0.0,0.0,48,0.00,,---,0.00,VWS V14.01,2013-07-12 14:39:00,
2013-07-12 07:44:00,74.5,53.5,31.25,NW,306,0.0,0.0,48,0.00,,---,0.00,VWS V14.01,2013-07-12 14:44:00,
2013-07-12 07:49:00,75.0,53.4,31.07,NW,306,0.0,0.0,47,0.00,,---,0.00,VWS V14.01,2013-07-12 14:49:00,
2013-07-12 07:54:00,75.2,53.6,31.07,NW,319,0.0,0.0,47,0.00,,---,0.00,VWS V14.01,2013-07-12 14:54:00,
2013-07-12 07:59:00,76.1,53.8,31.07,West,265,0.0,0.0,46,0.00,,---,0.00,VWS V14.01,2013-07-12 14:59:00,
2013-07-12 08:04:00,76.1,53.8,31.07,West,275,0.0,0.0,46,0.00,,---,0.00,VWS V14.01,2013-07-12 15:04:00,
2013-07-12 08:09:00,77.0,54.1,31.07,West,275,0.0,0.0,45,0.00,,---,0.00,VWS V14.01,2013-07-12 15:09:00,
2013-07-12 08:14:00,77.0,54.1,34.20,NW,324,0.0,0.0,45,0.00,,---,0.00,VWS V14.01,2013-07-12 15:14:00,
2013-07-12 08:19:00,79.0,51.2,34.20,NW,322,0.0,0.0,38,0.00,,---,0.00,VWS V14.01,2013-07-12 15:19:00,
2013-07-12 08:24:00,79.0,51.2,60.83,NNW,334,0.0,0.0,38,0.00,,---,0.00,VWS V14.01,2013-07-12 15:24:00,
2013-07-12 08:30:00,79.2,51.4,31.30,North,8,0.0,0.0,38,0.00,,---,0.00,VWS V14.01,2013-07-12 15:30:00,
2013-07-12 08:35:00,79.2,51.4,31.48,NNE,21,0.0,0.0,38,0.00,,---,0.00,VWS V14.01,2013-07-12 15:35:00,
2013-07-12 08:40:00,79.9,50.6,31.48,NNW,327,0.0,0.0,36,0.00,,---,0.00,VWS V14.01,2013-07-12 15:40:00,
2013-07-12 08:45:00,79.9,50.6,31.48,NNE,19,0.0,0.0,36,0.00,,---,0.00,VWS V14.01,2013-07-12 15:45:00,
2013-07-12 08:50:00,80.6,50.5,31.78,NNW,344,4.0,4.0,35,0.00,,---,0.00,VWS V14.01,2013-07-12 15:50:00,
2013-07-12 08:55:00,80.8,50.6,31.78,NNE,27,0.0,0.0,35,0.00,,---,0.00,VWS V14.01,2013-07-12 15:55:00,
2013-07-12 09:00:00,81.0,50.8,31.78,NNW,334,0.0,0.0,35,0.00,,---,0.00,VWS V14.01,2013-07-12 16:00:00,
2013-07-12 09:05:00,81.3,51.1,31.78,NNW,341,0.0,0.0,35,0.00,,---,0.00,VWS V14.01,2013-07-12 16:05:00,
2013-07-12 09:10:00,81.3,51.1,33.34,West,280,0.0,0.0,35,0.00,,---,0.00,VWS V14.01,2013-07-12 16:10:00,
2013-07-12 09:15:00,82.0,50.9,33.34,NW,305,0.0,0.0,34,0.00,,---,0.00,VWS V14.01,2013-07-12 16:15:00,
2013-07-12 09:20:00,82.2,51.1,33.34,West,276,3.6,3.6,34,0.00,,---,0.00,VWS V14.01,2013-07-12 16:20:00,
2013-07-12 09:25:00,82.4,48.8,31.87,NNW,336,0.0,0.0,31,0.00,,---,0.00,VWS V14.01,2013-07-12 16:25:00,
2013-07-12 09:30:00,82.8,49.1,31.87,NNW,330,4.0,4.0,31,0.00,,---,0.00,VWS V14.01,2013-07-12 16:30:00,
2013-07-12 09:35:00,83.5,47.9,31.81,WNW,300,7.6,7.6,29,0.00,,---,0.00,VWS V14.01,2013-07-12 16:35:00,
2013-07-12 09:40:00,83.3,47.8,31.81,WNW,300,7.6,7.6,29,0.00,,---,0.00,VWS V14.01,2013-07-12 16:40:00,
2013-07-12 09:45:00,83.3,44.9,31.81,East,88,0.0,4.0,26,0.00,,---,0.00,VWS V14.01,2013-07-12 16:45:00,
2013-07-12 09:50:00,83.3,44.9,31.78,NNE,32,0.0,0.0,26,0.00,,---,0.00,VWS V14.01,2013-07-12 16:50:00,
2013-07-12 09:55:00,83.3,44.9,31.78,North,357,4.0,4.0,26,0.00,,---,0.00,VWS V14.01,2013-07-12 16:55:00,
2013-07-12 10:01:00,83.3,44.9,31.78,NNW,334,0.0,0.0,26,0.00,,---,0.00,VWS V14.01,2013-07-12 17:01:00,
2013-07-12 10:06:00,83.7,45.2,31.78,NNE,17,4.9,4.9,26,0.00,,---,0.00,VWS V14.01,2013-07-12 17:06:00,
2013-07-12 10:12:00,84.9,43.0,31.51,NNE,27,5.4,5.4,23,0.00,,---,0.00,VWS V14.01,2013-07-12 17:12:00,
2013-07-12 10:17:00,86.4,44.2,31.51,NW,318,2.2,2.2,23,0.00,,---,0.00,VWS V14.01,2013-07-12 17:17:00,
2013-07-12 10:23:00,86.9,42.3,31.51,North,357,0.0,0.0,21,0.00,,---,0.00,VWS V14.01,2013-07-12 17:23:00,
2013-07-12 10:28:00,86.7,42.2,33.37,NNW,346,5.8,5.8,21,0.00,,---,0.00,VWS V14.01,2013-07-12 17:28:00,
2013-07-12 10:33:00,86.4,41.9,33.37,NNW,346,5.8,5.8,21,0.00,,---,0.00,VWS V14.01,2013-07-12 17:33:00,
2013-07-12 10:39:00,86.7,42.2,33.37,ESE,107,0.0,0.0,21,0.00,,---,0.00,VWS V14.01,2013-07-12 17:39:00,
2013-07-12 10:44:00,86.5,42.0,32.01,North,353,0.0,0.0,21,0.00,,---,0.00,VWS V14.01,2013-07-12 17:44:00,
2013-07-12 10:49:00,87.3,42.6,32.01,NNE,30,0.0,0.0,21,0.00,,---,0.00,VWS V14.01,2013-07-12 17:49:00,
2013-07-12 10:55:00,87.6,38.9,31.78,NW,323,4.0,4.0,18,0.00,,---,0.00,VWS V14.01,2013-07-12 17:55:00,
2013-07-12 11:00:00,88.0,39.2,31.78,NE,48,5.4,5.4,18,0.00,,---,0.00,VWS V14.01,2013-07-12 18:00:00,
2013-07-12 11:06:00,87.6,38.9,31.78,NNW,343,5.4,5.4,18,0.00,,---,0.00,VWS V14.01,2013-07-12 18:06:00,
2013-07-12 11:11:00,87.1,38.5,31.81,North,353,5.4,5.4,18,0.00,,---,0.00,VWS V14.01,2013-07-12 18:11:00,
2013-07-12 11:16:00,86.5,38.0,31.81,North,9,0.0,0.0,18,0.00,,---,0.00,VWS V14.01,2013-07-12 18:16:00,
2013-07-12 11:21:00,86.9,38.3,31.81,North,0,0.0,0.0,18,0.00,,---,0.00,VWS V14.01,2013-07-12 18:21:00,
2013-07-12 11:26:00,88.0,39.2,32.01,WSW,250,0.0,5.4,18,0.00,,---,0.00,VWS V14.01,2013-07-12 18:26:00,
2013-07-12 11:32:00,89.6,39.1,32.01,NNE,18,0.0,0.0,17,0.00,,---,0.00,VWS V14.01,2013-07-12 18:32:00,
2013-07-12 11:37:00,89.4,40.4,31.98,NNE,16,0.0,0.0,18,0.00,,---,0.00,VWS V14.01,2013-07-12 18:37:00,
2013-07-12 11:42:00,88.7,39.8,31.98,NNE,16,0.0,0.0,18,0.00,,---,0.00,VWS V14.01,2013-07-12 18:42:00,
2013-07-12 11:48:00,86.5,38.0,31.98,WSW,248,0.0,0.0,18,0.00,,---,0.00,VWS V14.01,2013-07-12 18:48:00,
2013-07-12 11:53:00,85.3,41.0,33.11,WSW,248,0.0,0.0,21,0.00,,---,0.00,VWS V14.01,2013-07-12 18:53:00,
2013-07-12 11:59:00,83.1,44.7,33.11,West,274,6.7,6.7,26,0.00,,---,0.00,VWS V14.01,2013-07-12 18:59:00,
2013-07-12 12:04:00,82.4,47.0,33.11,WSW,237,7.2,7.2,29,0.00,,---,0.00,VWS V14.01,2013-07-12 19:04:00,
2013-07-12 12:09:00,82.2,41.9,33.11,WNW,286,5.4,5.4,24,0.00,,---,0.00,VWS V14.01,2013-07-12 19:09:00,
2013-07-12 12:15:00,82.2,39.6,34.29,WNW,292,3.6,3.6,22,0.00,,---,0.00,VWS V14.01,2013-07-12 19:15:00,
2013-07-12 12:20:00,82.2,41.9,34.29,WNW,299,0.0,0.0,24,0.00,,---,0.00,VWS V14.01,2013-07-12 19:20:00,
2013-07-12 12:25:00,83.1,39.2,34.46,WNW,293,0.0,0.0,21,0.00,,---,0.00,VWS V14.01,2013-07-12 19:25:00,
2013-07-12 12:30:00,83.7,39.6,34.46,NW,322,0.0,0.0,21,0.00,,---,0.00,VWS V14.01,2013-07-12 19:30:00,
2013-07-12 12:35:00,84.7,40.5,34.46,NW,311,0.0,0.0,21,0.00,,---,0.00,VWS V14.01,2013-07-12 19:35:00,
2013-07-12 12:40:00,85.6,41.3,34.46,NW,324,0.0,0.0,21,0.00,,---,0.00,VWS V14.01,2013-07-12 19:40:00,
2013-07-12 12:46:00,86.2,41.7,34.46,NW,324,0.0,0.0,21,0.00,,---,0.00,VWS V14.01,2013-07-12 19:46:00,
2013-07-12 12:51:00,86.5,38.0,34.46,North,353,0.0,0.0,18,0.00,,---,0.00,VWS V14.01,2013-07-12 19:51:00,
2013-07-12 12:56:00,87.3,38.6,34.08,NW,313,0.0,0.0,18,0.00,,---,0.00,VWS V14.01,2013-07-12 19:56:00,
2013-07-12 13:01:00,87.1,42.5,34.08,WNW,300,0.0,0.0,21,0.00,,---,0.00,VWS V14.01,2013-07-12 20:01:00,
2013-07-12 13:06:00,87.1,38.5,34.08,NW,305,0.0,0.0,18,0.00,,---,0.00,VWS V14.01,2013-07-12 20:06:00,
2013-07-12 13:11:00,86.7,38.2,31.92,NW,305,0.0,0.0,18,0.00,,---,0.00,VWS V14.01,2013-07-12 20:11:00,
2013-07-12 13:16:00,85.8,37.5,31.92,WNW,302,0.0,0.0,18,0.00,,---,0.00,VWS V14.01,2013-07-12 20:16:00,
2013-07-12 13:22:00,85.5,37.2,31.98,WNW,302,0.0,0.0,18,0.00,,---,0.00,VWS V14.01,2013-07-12 20:22:00,
2013-07-12 13:27:00,84.6,40.4,31.98,WNW,301,0.0,0.0,21,0.00,,---,0.00,VWS V14.01,2013-07-12 20:27:00,
2013-07-12 13:32:00,83.5,39.5,31.98,WSW,247,0.0,0.0,21,0.00,,---,0.00,VWS V14.01,2013-07-12 20:32:00,
2013-07-12 13:37:00,82.8,42.3,31.78,NW,320,0.0,0.0,24,0.00,,---,0.00,VWS V14.01,2013-07-12 20:37:00,
2013-07-12 13:43:00,81.7,44.5,31.78,WNW,290,0.0,0.0,27,0.00,,---,0.00,VWS V14.01,2013-07-12 20:43:00,
2013-07-12 13:48:00,81.7,46.4,33.02,West,264,0.0,0.0,29,0.00,,---,0.00,VWS V14.01,2013-07-12 20:48:00,
2013-07-12 13:54:00,81.5,46.2,33.02,West,264,0.0,0.0,29,0.00,,---,0.00,VWS V14.01,2013-07-12 20:54:00,
2013-07-12 14:00:00,81.3,51.1,33.02,West,274,0.0,0.0,35,0.00,,---,0.00,VWS V14.01,2013-07-12 21:00:00,
2013-07-12 14:05:00,80.6,54.8,33.02,West,274,0.0,0.0,41,0.00,,---,0.00,VWS V14.01,2013-07-12 21:05:00,
2013-07-12 14:10:00,78.3,57.0,32.78,North,6,0.0,0.0,48,0.00,,---,0.00,VWS V14.01,2013-07-12 21:10:00,
2013-07-12 14:15:00,76.6,56.1,32.78,North,353,0.0,0.0,49,0.00,,---,0.00,VWS V14.01,2013-07-12 21:15:00,
2013-07-12 14:21:00,75.0,57.8,32.01,NNE,15,0.0,0.0,55,0.00,,---,0.00,VWS V14.01,2013-07-12 21:21:00,
2013-07-12 14:26:00,74.3,52.8,32.01,North,353,8.1,8.1,47,0.00,,---,0.00,VWS V14.01,2013-07-12 21:26:00,
2013-07-12 14:31:00,74.3,55.6,32.01,NW,319,3.1,3.1,52,0.00,,---,0.00,VWS V14.01,2013-07-12 21:31:00,
2013-07-12 14:36:00,72.1,55.6,32.01,NW,322,7.6,7.6,56,0.00,,---,0.00,VWS V14.01,2013-07-12 21:36:00,
2013-07-12 14:42:00,70.9,56.3,32.04,NW,326,0.0,0.0,60,0.04,,---,0.04,VWS V14.01,2013-07-12 21:42:00,
2013-07-12 14:48:00,70.5,57.3,32.04,WSW,256,0.0,0.0,63,0.04,,---,0.04,VWS V14.01,2013-07-12 21:48:00,
2013-07-12 14:53:00,70.5,57.3,32.04,NW,325,0.0,0.0,63,0.04,,---,0.04,VWS V14.01,2013-07-12 21:53:00,
2013-07-12 14:58:00,70.5,58.2,31.92,NW,325,0.0,0.0,65,0.04,,---,0.04,VWS V14.01,2013-07-12 21:58:00,
2013-07-12 15:03:00,70.7,60.5,31.92,WNW,283,5.4,5.4,70,0.04,,---,0.04,VWS V14.01,2013-07-12 22:03:00,
2013-07-12 15:08:00,70.9,53.9,31.36,WNW,283,5.4,5.4,55,0.04,,---,0.04,VWS V14.01,2013-07-12 22:08:00,
2013-07-12 15:13:00,72.7,54.1,31.36,WNW,283,5.4,5.4,52,0.04,,---,0.04,VWS V14.01,2013-07-12 22:13:00,
2013-07-12 15:18:00,73.4,57.3,31.36,ENE,78,2.2,2.2,57,0.04,,---,0.04,VWS V14.01,2013-07-12 22:18:00,
2013-07-12 15:23:00,73.2,55.1,31.75,ENE,78,2.2,2.2,53,0.04,,---,0.04,VWS V14.01,2013-07-12 22:23:00,
2013-07-12 15:28:00,73.4,52.5,31.75,ESE,107,0.0,0.0,48,0.04,,---,0.04,VWS V14.01,2013-07-12 22:28:00,
2013-07-12 15:33:00,74.5,52.4,31.75,SSE,166,4.0,4.0,46,0.04,,---,0.04,VWS V14.01,2013-07-12 22:33:00,
2013-07-12 15:39:00,75.0,54.0,31.45,North,6,3.1,3.1,48,0.04,,---,0.04,VWS V14.01,2013-07-12 22:39:00,
2013-07-12 15:44:00,74.8,55.5,31.45,East,98,4.9,4.9,51,0.00,,---,0.04,VWS V14.01,2013-07-12 22:44:00,
2013-07-12 15:49:00,73.6,54.4,31.45,East,90,6.7,6.7,51,0.00,,---,0.04,VWS V14.01,2013-07-12 22:49:00,
2013-07-12 15:54:00,71.1,58.3,30.83,East,93,14.5,14.5,64,0.00,,---,0.04,VWS V14.01,2013-07-12 22:54:00,
2013-07-12 15:59:00,69.6,58.6,30.83,ENE,74,8.7,8.7,68,0.00,,---,0.04,VWS V14.01,2013-07-12 22:59:00,
2013-07-12 16:04:00,68.4,59.4,30.83,ESE,108,10.5,10.5,73,0.00,,---,0.04,VWS V14.01,2013-07-12 23:04:00,
2013-07-12 16:10:00,67.8,57.7,30.63,SE,142,11.0,11.0,70,0.00,,---,0.04,VWS V14.01,2013-07-12 23:10:00,
2013-07-12 16:15:00,67.5,56.5,30.63,SE,142,11.0,11.0,68,0.00,,---,0.04,VWS V14.01,2013-07-12 23:15:00,
2013-07-12 16:21:00,67.5,55.7,30.86,SE,133,6.3,7.6,66,0.00,,---,0.04,VWS V14.01,2013-07-12 23:21:00,
2013-07-12 16:26:00,67.5,57.7,30.86,ESE,116,10.5,10.5,71,0.00,,---,0.04,VWS V14.01,2013-07-12 23:26:00,
2013-07-12 16:32:00,67.5,58.5,30.86,South,172,0.0,5.4,73,0.00,,---,0.04,VWS V14.01,2013-07-12 23:32:00,
2013-07-12 16:37:00,67.6,59.1,31.72,SE,144,0.0,0.0,74,0.00,,---,0.04,VWS V14.01,2013-07-12 23:37:00,
2013-07-12 16:42:00,67.6,60.2,31.72,SE,137,0.0,0.0,77,0.00,,---,0.04,VWS V14.01,2013-07-12 23:42:00,
2013-07-12 17:50:00,68.0,61.6,30.80,ESE,102,0.0,0.0,80,0.00,,---,0.04,VWS V14.01,2013-07-13 00:50:00,
2013-07-12 17:56:00,68.0,61.6,30.80,ESE,123,0.0,0.0,80,0.00,,---,0.04,VWS V14.01,2013-07-13 00:56:00,
2013-07-12 18:01:00,68.2,61.8,30.80,SE,134,0.0,3.6,80,0.00,,---,0.04,VWS V14.01,2013-07-13 01:01:00,
2013-07-12 18:06:00,68.4,62.0,30.63,SE,145,0.0,0.0,80,0.00,,---,0.04,VWS V14.01,2013-07-13 01:06:00,
2013-07-12 18:12:00,68.4,61.2,30.63,SSE,154,0.0,0.0,78,0.00,,---,0.04,VWS V14.01,2013-07-13 01:12:00,
2013-07-12 18:18:00,68.5,58.8,30.74,SSE,168,0.0,0.0,71,0.00,,---,0.04,VWS V14.01,2013-07-13 01:18:00,
2013-07-12 18:23:00,68.7,56.1,30.74,South,184,2.2,2.7,64,0.00,,---,0.04,VWS V14.01,2013-07-13 01:23:00,
2013-07-12 18:28:00,69.1,56.4,30.74,WSW,251,0.0,0.0,64,0.00,,---,0.04,VWS V14.01,2013-07-13 01:28:00,
2013-07-12 18:34:00,69.3,56.1,31.04,SSW,200,0.0,0.0,63,0.00,,---,0.04,VWS V14.01,2013-07-13 01:34:00,
2013-07-12 18:39:00,69.6,55.6,31.04,South,190,0.0,0.0,61,0.00,,---,0.04,VWS V14.01,2013-07-13 01:39:00,
2013-07-12 18:45:00,69.8,55.8,31.04,South,190,0.0,0.0,61,0.00,,---,0.04,VWS V14.01,2013-07-13 01:45:00,
2013-07-12 18:50:00,70.0,55.9,30.63,South,172,0.0,0.0,61,0.00,,---,0.04,VWS V14.01,2013-07-13 01:50:00,
2013-07-12 18:55:00,70.2,56.1,30.63,South,172,0.0,0.0,61,0.00,,---,0.04,VWS V14.01,2013-07-13 01:55:00,
2013-07-12 19:00:00,70.3,55.3,30.63,ENE,61,0.0,0.0,59,0.00,,---,0.04,VWS V14.01,2013-07-13 02:00:00,
2013-07-12 19:06:00,70.5,55.5,31.78,ENE,61,0.0,0.0,59,0.00,,---,0.04,VWS V14.01,2013-07-13 02:06:00,
2013-07-12 19:11:00,70.7,57.5,31.78,NE,37,0.0,0.0,63,0.00,,---,0.04,VWS V14.01,2013-07-13 02:11:00,
2013-07-12 19:16:00,70.3,59.3,31.78,NNE,14,0.0,0.0,68,0.00,,---,0.04,VWS V14.01,2013-07-13 02:16:00,
2013-07-12 19:22:00,70.0,60.5,30.80,NNE,32,0.0,0.0,72,0.00,,---,0.04,VWS V14.01,2013-07-13 02:22:00,
2013-07-12 19:27:00,69.4,60.4,30.80,NE,50,0.0,0.0,73,0.00,,---,0.04,VWS V14.01,2013-07-13 02:27:00,
2013-07-12 19:32:00,69.1,60.1,30.80,NE,49,0.0,0.0,73,0.00,,---,0.04,VWS V14.01,2013-07-13 02:32:00,
2013-07-12 19:37:00,68.9,60.7,31.01,NE,49,0.0,0.0,75,0.00,,---,0.04,VWS V14.01,2013-07-13 02:37:00,
2013-07-12 19:43:00,68.5,60.7,31.01,NE,49,0.0,0.0,76,0.00,,---,0.04,VWS V14.01,2013-07-13 02:43:00,
2013-07-12 19:48:00,68.5,61.0,31.01,NE,49,0.0,0.0,77,0.00,,---,0.04,VWS V14.01,2013-07-13 02:48:00,
2013-07-12 19:53:00,68.5,61.0,31.28,NE,49,0.0,0.0,77,0.00,,---,0.04,VWS V14.01,2013-07-13 02:53:00,
2013-07-12 19:58:00,68.5,61.0,31.28,NE,49,0.0,0.0,77,0.00,,---,0.04,VWS V14.01,2013-07-13 02:58:00,
2013-07-12 20:05:00,68.0,61.2,31.28,NE,49,0.0,0.0,79,0.00,,---,0.04,VWS V14.01,2013-07-13 03:05:00,
2013-07-12 20:10:00,67.8,61.1,31.57,NE,49,0.0,0.0,79,0.00,,---,0.04,VWS V14.01,2013-07-13 03:10:00,
2013-07-12 20:15:00,67.8,61.1,31.57,NE,49,0.0,0.0,79,0.00,,---,0.04,VWS V14.01,2013-07-13 03:15:00,
2013-07-12 20:20:00,67.6,61.3,34.17,NE,49,0.0,0.0,80,0.00,,---,0.04,VWS V14.01,2013-07-13 03:20:00,
2013-07-12 20:25:00,67.5,61.1,34.17,NE,49,0.0,0.0,80,0.00,,---,0.04,VWS V14.01,2013-07-13 03:25:00,
2013-07-12 20:30:00,67.5,61.1,34.17,NE,49,0.0,0.0,80,0.00,,---,0.04,VWS V14.01,2013-07-13 03:30:00,
2013-07-12 20:36:00,67.3,60.9,31.48,NE,49,0.0,0.0,80,0.00,,---,0.04,VWS V14.01,2013-07-13 03:36:00,
2013-07-12 20:41:00,67.3,60.9,31.48,NE,49,0.0,0.0,80,0.00,,---,0.04,VWS V14.01,2013-07-13 03:41:00,
2013-07-12 20:46:00,67.3,60.9,31.48,NE,49,0.0,0.0,80,0.00,,---,0.04,VWS V14.01,2013-07-13 03:46:00,
2013-07-12 20:51:00,66.9,60.9,31.81,NE,49,0.0,0.0,81,0.00,,---,0.04,VWS V14.01,2013-07-13 03:51:00,
2013-07-12 20:56:00,66.9,61.2,31.81,NE,49,0.0,0.0,82,0.00,,---,0.04,VWS V14.01,2013-07-13 03:56:00,
2013-07-12 21:01:00,66.9,61.2,31.81,NE,49,0.0,0.0,82,0.00,,---,0.04,VWS V14.01,2013-07-13 04:01:00,
2013-07-12 21:02:00,66.9,61.2,31.81,NE,49,0.0,0.0,82,0.00,,---,0.04,VWS V14.01,2013-07-13 04:02:00,
2013-07-12 21:03:00,66.9,61.2,31.81,NE,49,0.0,0.0,82,0.00,,---,0.04,VWS V14.01,2013-07-13 04:03:00,
2013-07-12 21:06:00,66.9,61.2,31.81,NE,49,0.0,0.0,82,0.00,,---,0.04,VWS V14.01,2013-07-13 04:06:00,
2013-07-12 21:11:00,66.9,61.2,31.75,NE,49,0.0,0.0,82,0.00,,---,0.04,VWS V14.01,2013-07-13 04:11:00,
2013-07-12 21:16:00,66.9,61.2,31.75,NE,49,0.0,0.0,82,0.00,,---,0.04,VWS V14.01,2013-07-13 04:16:00,
2013-07-12 21:21:00,66.9,61.9,31.48,NE,50,0.0,0.0,84,0.00,,---,0.04,VWS V14.01,2013-07-13 04:21:00,
2013-07-12 21:26:00,66.9,62.6,31.48,NE,50,0.0,0.0,86,0.00,,---,0.04,VWS V14.01,2013-07-13 04:26:00,
2013-07-12 21:31:00,66.9,62.9,31.48,NE,52,0.0,0.0,87,0.00,,---,0.04,VWS V14.01,2013-07-13 04:31:00,
2013-07-12 21:36:00,66.9,62.9,31.42,NE,52,0.0,0.0,87,0.00,,---,0.04,VWS V14.01,2013-07-13 04:36:00,
2013-07-12 21:41:00,66.9,62.9,31.42,NE,52,0.0,0.0,87,0.00,,---,0.04,VWS V14.01,2013-07-13 04:41:00,
2013-07-12 21:46:00,66.6,62.6,31.42,NE,52,0.0,0.0,87,0.00,,---,0.04,VWS V14.01,2013-07-13 04:46:00,
2013-07-12 21:51:00,66.4,62.4,33.79,NE,52,0.0,0.0,87,0.00,,---,0.04,VWS V14.01,2013-07-13 04:51:00,
2013-07-12 21:56:00,66.4,62.4,33.79,NE,52,0.0,0.0,87,0.00,,---,0.04,VWS V14.01,2013-07-13 04:56:00,
2013-07-12 22:01:00,66.4,62.4,33.79,NE,52,0.0,0.0,87,0.00,,---,0.04,VWS V14.01,2013-07-13 05:01:00,
2013-07-12 22:06:00,66.4,62.4,32.13,NE,52,0.0,0.0,87,0.00,,---,0.04,VWS V14.01,2013-07-13 05:06:00,
2013-07-12 22:12:00,65.8,62.2,32.13,NE,53,0.0,0.0,88,0.00,,---,0.04,VWS V14.01,2013-07-13 05:12:00,
2013-07-12 22:17:00,65.8,62.2,32.13,ENE,57,0.0,0.0,88,0.00,,---,0.04,VWS V14.01,2013-07-13 05:17:00,
2013-07-12 22:22:00,66.0,63.0,31.81,ENE,57,0.0,0.0,90,0.00,,---,0.04,VWS V14.01,2013-07-13 05:22:00,
2013-07-12 22:27:00,65.8,63.1,31.81,ENE,57,0.0,0.0,91,0.00,,---,0.04,VWS V14.01,2013-07-13 05:27:00,
2013-07-12 22:32:00,65.8,63.1,31.81,ENE,57,0.0,0.0,91,0.00,,---,0.04,VWS V14.01,2013-07-13 05:32:00,
2013-07-12 22:37:00,65.7,62.7,32.25,ENE,57,0.0,0.0,90,0.00,,---,0.04,VWS V14.01,2013-07-13 05:37:00,
2013-07-12 22:42:00,65.7,62.7,32.25,ENE,57,0.0,0.0,90,0.00,,---,0.04,VWS V14.01,2013-07-13 05:42:00,
2013-07-12 22:47:00,65.5,62.2,32.25,ENE,57,0.0,0.0,89,0.00,,---,0.04,VWS V14.01,2013-07-13 05:47:00,
2013-07-12 22:52:00,65.5,62.2,32.10,ENE,57,0.0,0.0,89,0.00,,---,0.04,VWS V14.01,2013-07-13 05:52:00,
2013-07-12 22:57:00,65.1,61.5,32.10,ENE,57,0.0,0.0,88,0.00,,---,0.04,VWS V14.01,2013-07-13 05:57:00,
2013-07-12 23:02:00,64.9,61.0,32.10,ENE,57,0.0,0.0,87,0.00,,---,0.04,VWS V14.01,2013-07-13 06:02:00,
2013-07-12 23:07:00,64.9,61.0,32.10,ENE,57,0.0,0.0,87,0.00,,---,0.04,VWS V14.01,2013-07-13 06:07:00,
2013-07-12 23:12:00,64.8,59.8,32.13,ENE,57,0.0,0.0,84,0.00,,---,0.04,VWS V14.01,2013-07-13 06:12:00,
2013-07-12 23:17:00,64.8,59.8,32.13,ENE,57,0.0,0.0,84,0.00,,---,0.04,VWS V14.01,2013-07-13 06:17:00,
2013-07-12 23:22:00,64.8,59.8,32.13,ENE,57,0.0,0.0,84,0.00,,---,0.04,VWS V14.01,2013-07-13 06:22:00,
2013-07-12 23:27:00,64.8,60.2,32.07,ENE,57,0.0,0.0,85,0.00,,---,0.04,VWS V14.01,2013-07-13 06:27:00,
2013-07-12 23:32:00,64.8,60.2,32.07,ENE,57,0.0,0.0,85,0.00,,---,0.04,VWS V14.01,2013-07-13 06:32:00,
2013-07-12 23:37:00,64.6,60.3,31.39,ENE,57,0.0,0.0,86,0.00,,---,0.04,VWS V14.01,2013-07-13 06:37:00,
2013-07-12 23:42:00,64.6,60.3,31.39,ENE,57,0.0,0.0,86,0.00,,---,0.04,VWS V14.01,2013-07-13 06:42:00,
2013-07-12 23:47:00,64.6,60.3,31.39,ENE,57,0.0,0.0,86,0.00,,---,0.04,VWS V14.01,2013-07-13 06:47:00,
2013-07-12 23:52:00,64.9,61.0,31.48,ENE,57,0.0,0.0,87,0.00,,---,0.04,VWS V14.01,2013-07-13 06:52:00,
2013-07-12 23:58:00,64.9,61.3,31.48,ENE,57,0.0,0.0,88,0.00,,---,0.04,VWS V14.01,2013-07-13 06:58:00,